Location: Cambroso
(45.2833°N, 12.0850°E)
Time: 15:50:26
(UTC+00:00)

Cosmos 2279 Rocket - Pass Details

Date: 21 January 2021
Orbit: 964 x 979 km, 82.9° (Epoch: 25 February)

Event Time Altitude Azimuth Distance (km) Brightness Sun altitude
Rises 16:34:19 0° 354° (N) 3,693 6.9 -5.7°
Reaches altitude 10° 16:36:53 10° 357° (N) 2,740 6.2 -6.2°
Maximum altitude 16:43:08 64° 79° (E) 1,080 4.0 -7.2°
Drops below altitude 10° 16:49:18 10° 160° (SSE) 2,715 6.4 -8.2°
Sets 16:51:49 0° 164° (SSE) 3,657 7.1 -8.6°
